Погода в Невинномысске

Погода в Невинномысске : погода сейчас, прогноз погоды и архив. Всё, что Вы хотите узнать о погоде в Невинномысске!

Поиск расширенной информации на нашем сайте:

Другие новости

Новости СМИ2

Главная страница сайта

Новости сайта

03.07.2017

Напоминаем, что на нашем специализированном сайте Метеоцентр.Азия вы можете получить высокодетализированные автоматические прогнозы погоды по пунктам России, СНГ и мира в авиационном формате (включающие направление и скорость ветра, видимость, явления погоды, количество и форму облачности, нижнюю и верхнюю границу облачности).


Погода в Невинномысске - сегодня

Время (UTC), дата Ветер
(°,м/с) 
Видим.   Явления Облачность Т
(°С)
Тd
(°С)
f(%) Тe
(°С)
Pmin
(гПа)
dP
(гПа)
Po
(мм)
O2
(г/м3)
Тmin Tmax R s Состояние
почвы
03 20.04.18 280 (З) 5{12}  20000 м    8/8 600 м 
[Sc diur, vesp]
+10.5 +4.1 65 +9  1004.9  -1.5  723  280  +9.4    0.3    сухая 
18 20.04.18 270 (З) 20000 м    10/10 1000 м 
[Sc diur, vesp]
+8.8 +4.5 74 +9  1010.8  728  283           
21 20.04.18 270 (З) 20000 м    10/0 средняя 
[Ac und]
+8.5 +5 79 +9  1011.5  0.6  728  284           
00 21.04.18 270 (З) 20000 м    10/0 средняя 
[Ac und]
+8.3 +5.5 83 +8  1011.7  0.2  728  284           
06 21.04.18 270 (З) 10 км  слаб. ливневой дождь  10/10 600 м кучево-дожд. 
[Cb cap]
+9.4 +7.6 89 +9  1014.3  1.9  730  283           
09 21.04.18 270 (З) 20000 м  {ливн. осадки}  10/10 600 м кучево-дожд. 
[Cb cap]
+9.8 +8 89 +10  1014.9  0.8  731  283           
18 21.04.18 320 (СЗ) 20000 м    ясно 
+10.3 +6.4 77 +10  1014.2  0.2  730  282           
21 21.04.18 230 (ЮЗ) 20000 м    ясно 
+7.8 +6.1 89 +8  1014.1  -0.3  730  285           
00 22.04.18 230 (ЮЗ) 20000 м    ясно 
+7.4 +5.1 85 +7  1013.5  -0.8  730  285           
06 22.04.18 260 (З) 20000 м    6/0 верхняя 
[Ci sp]
+14.3 +3.2 47 +14  1009.1  -1.8  727  278           
09 22.04.18 240 (ЮЗ) 20000 м    9/0 верхняя 
[Ci sp]
+18.8 +3.8 37 +19  1007.2  -1.2  726  273           
12 22.04.18 280 (З) 20000 м    10/5 600 м кучево-дожд., средняя 
[Cb calv|Ac und]
+16.2 +4.8 47 +16  1007.5  726  275           
18 22.04.18 270 (З) 20000 м    ясно 
+11.5 +2.3 53 +12  1010.5  1.7  728  281           
21 22.04.18 240 (ЮЗ) 20000 м    ясно 
+9.7 +1.5 57 +10  1011  0.4  728  283           
00 23.04.18 190 (Ю) 20000 м    ясно 
+8.3 +2.1 65 +8  1011.7  0.4  728  284           
06 23.04.18 тихо ()   20000 м    10/3 600 м верхняя 
[Cu hum|Ci]
+14.1 +5.5 56 +14  1011.4  728  278           
09 23.04.18 010 (С) 52  0400 м    8/8 2000 м кучево-дожд., верхняя 
[Cb calv|Ci]
+1.5   1010.8  -0.4  728             
15 23.04.18 280 (З) 3{12}  20000 м    10/10 600 м кучево-дожд. 
[Cb calv]
+9.5 +5.6 77 +9  1014  1.9  730  283           
21 23.04.18 тихо ()   20000 м    10/0 средняя 
[Ac und]
+8.2 +4.5 77 +8  1016.8  0.8  732  286           
00 24.04.18 тихо ()   20000 м    10/0 верхняя 
[Ci]
+5.6 +3.9 89 +6  1017.9  0.7  732  288           
06 24.04.18 270 (З) 20000 м    3/3 1000 м 
[Cu med, cong]
+12.9 +2.1 48 +13  1019.3  1.2  734  282           
09 24.04.18 290 (З) 20000 м    8/8 600 м кучево-дожд. 
[Cb calv]
+14.6 -0.8 35 +14  1019.6  0.4  734  281           
12 24.04.18 280 (З) 20000 м    4/3 1000 м верхняя 
[Cu med, cong|Ci ing]
+16.6 -2.9 26 +17  1018.8  -0.5  734  279           
18 24.04.18 тихо ()   20000 м    ясно 
+7.5 +0.9 63 +8  1020.5  0.6  734  288           
21 24.04.18 тихо ()   20000 м    ясно 
+4.7 +1.1 77 +5  1020  -0.9  734  290           
Время (UTC), дата Ветер
(°,м/с) 
Видим.   Явления Облачность Т
(°С)
Тd
(°С)
f(%) Тe
(°С)
Pmin
(гПа)
dP
(гПа)
Po
(мм)
O2
(г/м3)
Тmin Tmax R s Состояние
почвы

Для получения пояснительной информации подведите курсор к названию столбца.

ПОГОДА в Невинномысске - архив

Всё, что Вы хотите узнать о погоде в Невинномысске - удобно и подробно!

Выберите нужную дату (начиная с 1 января 2015* года) и нажмите кнопку "Найти".
Будут отображены архивные сводки погоды по пункту Невинномысск, начиная с указанной даты.


Отображать данные в формате CSV (для использования в таблицах Excel)


Внимание! Наш архив погоды предназначен исключительно для личного некоммерческого использования в познавательных целях. Если Вам необходимы официальные справки о состоянии погоды (для производственных, юридических, коммерческих и т.п. целей), обращайтесь в органы Росгидромета.

*Примечание: данная дата относится к архиву по метеостанциям СССР (Россия, СНГ, Балтия).
Архив по метеостанциям Зарубежной Европы и Азии (кроме Китая) хранится 10 дней, по другим регионам земного шара (Китай, Африка, Америка, Австралия, Океания) - 1 день.

Невинномысск - район местоположения метеостанции


Название, широта, долгота, высота метеостанции:
Невинномысск 44.6°ш. 42°д. 343 м над ур. моря [Российская Федерация]

Дополнительная информация

В oтличие oт бoльшинства пoгoдных сайтoв мы публикуем пoдрoбную метеoинфoрмацию в детальнoм прoфессиoнальнoм фoрмате.

Характеристики температуры и влажнoсти вoздуха измеряются на высoте 2 м в тени вдали oт зданий и деревьев.
Скoрoсть ветра измеряется на высoте 10 м (на урoвне рoста челoвека скoрoсть ветра ниже в 1.5-2 раза). Если метеoстанция нахoдится в гoрoде или в лесу, тo скoрoсть ветра занижена на 2-4 м/с пo сравнению с oткрытым местoм. Скoрoсть ветра над акватoриями крупных рек и oзёр, а также на вершинах хoлмoв на 2-5 м/с выше, чем в oбычных услoвиях.
Атмoсфернoе давление в разных тoчках местнoсти мoжет значительнo oтличаться oт давления на метеoстанции, в зависимoсти oт услoвий рельефа (при пoдъёме на 10 м давление пoнижается примернo на 1 мм рт.ст.).